星链-2049 (STARLINK-2049 )

导读

STARLINK-2049是美国SpaceX公司星链(Starlink)卫星互联网星座的一员,于2021年1月20日发射升空。星链项目旨在通过低地球轨道星座,为全球尤其是偏远欠发达区域提供低时延、高速的宽带互联网接入服务。该卫星运行在550公里左右的近地轨道,属于星链早期组网卫星,依托Ku、Ka频段与地面终端通信,助力星链完成全球互联网覆盖的组网布局,为用户提供稳定的卫星互联网连接。

基本信息
目录编号:
47356
目录名称:
STARLINK-2049
国际标识:
2021-005H
轨道中心:
EARTH
卫星名称:
星链-2049
卫星全名:
星链-2049 (STARLINK-2049 )
卫星状态:
在轨 (已飞行2053 天)
发射日期:
2021-01-20 UTC
国别 :
美国 (US)
星等 :
--
轨道信息
数据来源 国际轨道数据 AOE轨道数据
星历时间 2026-09-04T11:19:59+0800
12小时前
查看轨道信息
2026-09-04T02:00:00+0800
22小时前
查看轨道信息
半长轴 6848.85km 6848.891km
偏心率 0.000117 0.0001417
轨道倾角 53.159° 53.160°
近地点辐角 78.040° 91.099°
升交点赤经 286.533° 288.346°
平近点角 282.073° 283.483°
近地点 469.911km 469.783km
远地点 471.515km 471.725km
周期 94.013分钟 94.013分钟
每日圈数 15.317091 15.316954
详细信息
固有亮度:
5
最大亮度:
2.5
卫星平台:
Starlink V1.0
覆盖范围:
全球
运营商:
太空探索技术公司
运营商所在国:
美国
制造商(研发单位):
太空探索技术公司
制造商所在国:
美国
使用方式:
暂无
卫星简介
星链(Starlink)计划是由太空探索技术公司(SpaceX)提出的一个巨型低轨卫星互联网星座项目,计划在2019年至2024年间在太空搭建由约1.2万颗卫星组成的“星链”网络,其中1584颗将部署在地球上空550千米处的近地轨道,并从2020年开始工作。该卫星仍在工作。
2D轨道图
3D轨道图
轨道高度分析图
轨道倾角分析图
轨道综合分析图
查看轨道综合分析图
交会数据列表
事件ID 空间交会对象 最接近时刻(TCA) 交会距离 交会风险概率(CRP) 交会风险指数(CRI) 操作
CDM_260905-231904-735606-539621
2026-09-05T
23:19:12+0000
2.292 km
极远距离
2.065103E-6 低风险 0.41
CDM_260906-192904-735606-860421
2026-09-06T
19:29:08+0000
2.975 km
极远距离
1.349639E-6 低风险 0.38
CDM_260905-162904-735605-346521
2026-09-05T
16:29:31+0000
2.950 km
极远距离
1.152503E-6 低风险 0.36
CDM_260907-042304-735606-238121
HAWK-11C (62381)
2026-09-07T
04:23:52+0000
2.851 km
极远距离
9.273174E-7 极低风险 0.34
CDM_260907-024904-735606-238121
HAWK-11C (62381)
2026-09-07T
02:49:55+0000
2.973 km
极远距离
8.818347E-7 极低风险 0.34